Time,TemperatureF,DewpointF,PressureIn,WindDirection,WindDirectionDegrees,WindSpeedMPH,WindSpeedGustMPH,Humidity,HourlyPrecipIn,Conditions,Clouds,dailyrainin,SoftwareType,DateUTC
2013-10-19 00:10:00,52.0,-99.9,-100.00,East,98,5.0,8.0,-999,-99.99,,,-99.99,,2013-10-19 06:10:00,
2013-10-19 00:52:00,52.0,-99.9,-100.00,East,98,5.0,8.0,-999,-99.99,,,-99.99,,2013-10-19 06:52:00,
2013-10-19 01:02:00,52.0,-99.9,-100.00,East,98,5.0,8.0,-999,-99.99,,,-99.99,,2013-10-19 07:02:00,
2013-10-19 02:42:00,48.0,-99.9,-100.00,ENE,77,5.0,8.0,-999,-99.99,,,-99.99,,2013-10-19 08:42:00,
2013-10-19 02:52:00,47.0,-99.9,-100.00,ENE,72,3.0,8.0,-999,-99.99,,,-99.99,,2013-10-19 08:52:00,
2013-10-19 03:12:00,47.0,-99.9,-100.00,ENE,77,4.0,7.0,-999,-99.99,,,-99.99,,2013-10-19 09:12:00,
2013-10-19 03:43:00,46.0,-99.9,-100.00,ENE,62,3.0,5.0,-999,-99.99,,,-99.99,,2013-10-19 09:43:00,
2013-10-19 03:54:00,45.0,-99.9,-100.00,ENE,76,1.0,3.0,-999,-99.99,,,-99.99,,2013-10-19 09:54:00,
2013-10-19 04:13:00,44.0,-99.9,-100.00,North,7,0.0,2.0,-999,-99.99,,,-99.99,,2013-10-19 10:13:00,
2013-10-19 04:23:00,43.0,-99.9,-100.00,North,351,1.0,1.0,-999,-99.99,,,-99.99,,2013-10-19 10:23:00,
2013-10-19 04:32:00,43.0,-99.9,-100.00,North,351,1.0,1.0,-999,-99.99,,,-99.99,,2013-10-19 10:32:00,
2013-10-19 04:40:00,43.0,-99.9,-100.00,WNW,282,2.0,5.0,-999,-99.99,,,-99.99,,2013-10-19 10:40:00,
2013-10-19 04:42:00,43.0,-99.9,-100.00,North,351,1.0,1.0,-999,-99.99,,,-99.99,,2013-10-19 10:42:00,
2013-10-19 05:22:00,43.0,-99.9,-100.00,WNW,282,2.0,5.0,-999,-99.99,,,-99.99,,2013-10-19 11:22:00,
2013-10-19 05:33:00,43.0,-99.9,-100.00,WNW,282,2.0,5.0,-999,-99.99,,,-99.99,,2013-10-19 11:33:00,
2013-10-19 05:50:00,40.0,-99.9,-100.00,WNW,285,2.0,5.0,-999,-99.99,,,-99.99,,2013-10-19 11:50:00,
2013-10-19 05:52:00,41.0,-99.9,-100.00,East,84,0.0,1.0,-999,-99.99,,,-99.99,,2013-10-19 11:52:00,
2013-10-19 06:02:00,41.0,-99.9,-100.00,East,84,0.0,1.0,-999,-99.99,,,-99.99,,2013-10-19 12:02:00,
2013-10-19 06:43:00,40.0,-99.9,-100.00,WNW,285,2.0,5.0,-999,-99.99,,,-99.99,,2013-10-19 12:43:00,
2013-10-19 07:12:00,40.0,-99.9,-100.00,East,101,1.0,2.0,-999,-99.99,,,-99.99,,2013-10-19 13:12:00,
2013-10-19 07:22:00,40.0,-99.9,-100.00,NNW,345,0.0,2.0,-999,-99.99,,,-99.99,,2013-10-19 13:22:00,
2013-10-19 07:30:00,39.0,-99.9,-100.00,North,9,0.0,1.0,-999,-99.99,,,-99.99,,2013-10-19 13:30:00,
2013-10-19 07:32:00,40.0,-99.9,-100.00,NNW,345,0.0,2.0,-999,-99.99,,,-99.99,,2013-10-19 13:32:00,
2013-10-19 07:52:00,38.0,-99.9,-100.00,WSW,252,0.0,1.0,-999,-99.99,,,-99.99,,2013-10-19 13:52:00,
2013-10-19 08:11:00,39.0,-99.9,-100.00,North,9,0.0,1.0,-999,-99.99,,,-99.99,,2013-10-19 14:11:00,
2013-10-19 08:22:00,39.0,-99.9,-100.00,North,9,0.0,1.0,-999,-99.99,,,-99.99,,2013-10-19 14:22:00,
2013-10-19 08:53:00,43.0,-99.9,-100.00,NE,55,3.0,3.0,-999,-99.99,,,-99.99,,2013-10-19 14:53:00,
2013-10-19 09:11:00,44.0,-99.9,-100.00,East,89,2.0,3.0,-999,-99.99,,,-99.99,,2013-10-19 15:11:00,
2013-10-19 09:22:00,45.0,-99.9,-100.00,East,90,2.0,4.0,-999,-99.99,,,-99.99,,2013-10-19 15:22:00,
2013-10-19 09:40:00,50.0,-99.9,-100.00,East,89,2.0,5.0,-999,-99.99,,,-99.99,,2013-10-19 15:40:00,
2013-10-19 09:44:00,46.0,-99.9,-100.00,East,81,2.0,5.0,-999,-99.99,,,-99.99,,2013-10-19 15:44:00,
2013-10-19 09:55:00,47.0,-99.9,-100.00,East,95,1.0,4.0,-999,-99.99,,,-99.99,,2013-10-19 15:55:00,
2013-10-19 10:04:00,47.0,-99.9,-100.00,East,95,1.0,4.0,-999,-99.99,,,-99.99,,2013-10-19 16:04:00,
2013-10-19 10:24:00,50.0,-99.9,-100.00,East,89,2.0,5.0,-999,-99.99,,,-99.99,,2013-10-19 16:24:00,
2013-10-19 10:33:00,50.0,-99.9,-100.00,East,89,2.0,5.0,-999,-99.99,,,-99.99,,2013-10-19 16:33:00,
2013-10-19 11:13:00,52.0,-99.9,-100.00,SE,125,0.0,4.0,-999,-99.99,,,-99.99,,2013-10-19 17:13:00,
2013-10-19 11:22:00,54.0,-99.9,-100.00,ENE,69,1.0,4.0,-999,-99.99,,,-99.99,,2013-10-19 17:22:00,
2013-10-19 11:43:00,54.0,-99.9,-100.00,NE,50,2.0,5.0,-999,-99.99,,,-99.99,,2013-10-19 17:43:00,
2013-10-19 12:13:00,56.0,-99.9,-100.00,ENE,58,2.0,4.0,-999,-99.99,,,-99.99,,2013-10-19 18:13:00,
2013-10-19 12:22:00,58.0,-99.9,-100.00,ENE,67,2.0,4.0,-999,-99.99,,,-99.99,,2013-10-19 18:22:00,
2013-10-19 12:30:00,60.0,-99.9,-100.00,ENE,59,1.0,5.0,-999,-99.99,,,-99.99,,2013-10-19 18:30:00,
2013-10-19 12:42:00,58.0,-99.9,-100.00,ENE,75,2.0,3.0,-999,-99.99,,,-99.99,,2013-10-19 18:42:00,
2013-10-19 12:52:00,58.0,-99.9,-100.00,NE,52,3.0,3.0,-999,-99.99,,,-99.99,,2013-10-19 18:52:00,
2013-10-19 13:12:00,60.0,-99.9,-100.00,ENE,59,1.0,5.0,-999,-99.99,,,-99.99,,2013-10-19 19:12:00,
2013-10-19 13:22:00,60.0,-99.9,-100.00,ENE,59,1.0,5.0,-999,-99.99,,,-99.99,,2013-10-19 19:22:00,
2013-10-19 13:30:00,63.0,-99.9,-100.00,ESE,117,0.0,4.0,-999,-99.99,,,-99.99,,2013-10-19 19:30:00,
2013-10-19 13:52:00,62.0,-99.9,-100.00,East,84,2.0,4.0,-999,-99.99,,,-99.99,,2013-10-19 19:52:00,
2013-10-19 14:12:00,63.0,-99.9,-100.00,ESE,117,0.0,4.0,-999,-99.99,,,-99.99,,2013-10-19 20:12:00,
2013-10-19 14:22:00,63.0,-99.9,-100.00,ESE,117,0.0,4.0,-999,-99.99,,,-99.99,,2013-10-19 20:22:00,
2013-10-19 15:11:00,66.0,-99.9,-100.00,NE,47,0.0,2.0,-999,-99.99,,,-99.99,,2013-10-19 21:11:00,
2013-10-19 15:40:00,68.0,-99.9,-100.00,East,94,1.0,2.0,-999,-99.99,,,-99.99,,2013-10-19 21:40:00,
2013-10-19 16:24:00,68.0,-99.9,-100.00,East,94,1.0,2.0,-999,-99.99,,,-99.99,,2013-10-19 22:24:00,
2013-10-19 16:34:00,68.0,-99.9,-100.00,East,94,1.0,2.0,-999,-99.99,,,-99.99,,2013-10-19 22:34:00,
2013-10-19 17:23:00,68.0,-99.9,-100.00,ENE,72,1.0,3.0,-999,-99.99,,,-99.99,,2013-10-19 23:23:00,
2013-10-19 17:34:00,68.0,-99.9,-100.00,ENE,72,1.0,3.0,-999,-99.99,,,-99.99,,2013-10-19 23:34:00,
2013-10-19 18:11:00,69.0,-99.9,-100.00,ENE,72,1.0,1.0,-999,-99.99,,,-99.99,,2013-10-20 00:11:00,
2013-10-19 18:23:00,69.0,-99.9,-100.00,East,80,2.0,2.0,-999,-99.99,,,-99.99,,2013-10-20 00:23:00,
2013-10-19 18:32:00,69.0,-99.9,-100.00,East,80,2.0,2.0,-999,-99.99,,,-99.99,,2013-10-20 00:32:00,
2013-10-19 18:42:00,69.0,-99.9,-100.00,East,80,2.0,2.0,-999,-99.99,,,-99.99,,2013-10-20 00:42:00,
2013-10-19 19:12:00,64.0,-99.9,-100.00,East,84,0.0,1.0,-999,-99.99,,,-99.99,,2013-10-20 01:12:00,
2013-10-19 19:22:00,64.0,-99.9,-100.00,East,84,0.0,1.0,-999,-99.99,,,-99.99,,2013-10-20 01:22:00,
2013-10-19 19:42:00,59.0,-99.9,-100.00,North,359,1.0,1.0,-999,-99.99,,,-99.99,,2013-10-20 01:42:00,
2013-10-19 19:53:00,58.0,-99.9,-100.00,NNE,29,1.0,1.0,-999,-99.99,,,-99.99,,2013-10-20 01:53:00,
2013-10-19 20:02:00,58.0,-99.9,-100.00,NNE,29,1.0,1.0,-999,-99.99,,,-99.99,,2013-10-20 02:02:00,
2013-10-19 20:12:00,58.0,-99.9,-100.00,NNE,29,1.0,1.0,-999,-99.99,,,-99.99,,2013-10-20 02:12:00,
2013-10-19 20:20:00,58.0,-99.9,-100.00,West,259,1.0,1.0,-999,-99.99,,,-99.99,,2013-10-20 02:20:00,
2013-10-19 20:42:00,60.0,-99.9,-100.00,NE,45,0.0,0.0,-999,-99.99,,,-99.99,,2013-10-20 02:42:00,
2013-10-19 20:52:00,60.0,-99.9,-100.00,NE,45,0.0,0.0,-999,-99.99,,,-99.99,,2013-10-20 02:52:00,
2013-10-19 21:12:00,58.0,-99.9,-100.00,West,259,1.0,1.0,-999,-99.99,,,-99.99,,2013-10-20 03:12:00,
2013-10-19 22:03:00,-999.0,-99.9,-100.00,ESE,111,3.0,6.0,-999,-99.99,,,-99.99,,2013-10-20 04:03:00,
2013-10-19 22:14:00,54.0,-99.9,-100.00,ESE,111,3.0,6.0,-999,-99.99,,,-99.99,,2013-10-20 04:14:00,
2013-10-19 22:24:00,53.0,-99.9,-100.00,East,99,6.0,6.0,-999,-99.99,,,-99.99,,2013-10-20 04:24:00,
2013-10-19 22:34:00,53.0,-99.9,-100.00,East,99,6.0,6.0,-999,-99.99,,,-99.99,,2013-10-20 04:34:00,
2013-10-19 22:44:00,53.0,-99.9,-100.00,East,99,6.0,6.0,-999,-99.99,,,-99.99,,2013-10-20 04:44:00,